User: anonymous   Login
Location: Unspecified
(40.8819°N, 0.0000°E)
Time: 18:34:45
(UTC+00:00)
Language:

EO-79 - Orbit

View from above orbital plane
View from above orbital plane
View from above satellite
View from above satellite

Ground track
Ground track

The orbit data is extracted from the following two-line orbital elements,

1 40025U 14033R   24112.88781052  .00018771  00000-0  15654-2 0  9998
2 40025  98.0363  71.8556 0009177 356.3362   3.7791 14.98613182534952
Epoch (UTC): 21 April 2024 21:18:26
Eccentricity: 0.0009177
inclination: 98.0363°
perigee height: 565 km
apogee height: 577 km
right ascension of ascending node: 71.8556°
argument of perigee: 356.3362°
revolutions per day: 14.98613182
mean anomaly at epoch: 3.7791°
orbit number at epoch: 53495

The dashed part of the orbit path shows where the satellite is in the earth's shadow,  

DLR